owner,sensor,date,latitude,longitude,vertical_datum,wind_speed,wind_to_direction,wind_speed_of_gust,qcFlag 
DISL,ioos:station:DISL:DISL:1,2015-10-01T00:00:00Z,30.2513,-88.0778,9.68,4.38,338.9,-9999.0,'1111122,1111122,1111122' 
DISL,ioos:station:DISL:DISL:1,2015-10-01T00:30:00Z,30.2513,-88.0778,9.68,3.99,341.2,-9999.0,'1111122,1111122,1111122' 
DISL,ioos:station:DISL:DISL:1,2015-10-01T01:00:00Z,30.2513,-88.0778,9.68,4.03,342.6,-9999.0,'1111122,1111122,1111122' 
DISL,ioos:station:DISL:DISL:1,2015-10-01T01:30:00Z,30.2513,-88.0778,9.68,5.44,331.5,-9999.0,'1111122,1111122,1111122' 
DISL,ioos:station:DISL:DISL:1,2015-10-01T02:00:00Z,30.2513,-88.0778,9.68,5.54,324.7,-9999.0,'1111122,1111122,1111122' 
DISL,ioos:station:DISL:DISL:1,2015-10-01T02:30:00Z,30.2513,-88.0778,9.68,5.19,331.4,-9999.0,'1111122,1111122,1111122' 
DISL,ioos:station:DISL:DISL:1,2015-10-01T03:00:00Z,30.2513,-88.0778,9.68,6.29,344.1,-9999.0,'1111122,1111122,1111122' 
DISL,ioos:station:DISL:DISL:1,2015-10-01T03:30:00Z,30.2513,-88.0778,9.68,7.39,349.4,-9999.0,'1111122,1111122,1111122' 
DISL,ioos:station:DISL:DISL:1,2015-10-01T04:00:00Z,30.2513,-88.0778,9.68,8.56,352.3,-9999.0,'1111122,1111122,1111122' 
DISL,ioos:station:DISL:DISL:1,2015-10-01T04:30:00Z,30.2513,-88.0778,9.68,9.37,359.1,-9999.0,'1111122,1111122,1111122' 
DISL,ioos:station:DISL:DISL:1,2015-10-01T05:00:00Z,30.2513,-88.0778,9.68,10.49,1.902,-9999.0,'1111122,1111122,1111122' 
DISL,ioos:station:DISL:DISL:1,2015-10-01T05:30:00Z,30.2513,-88.0778,9.68,9.64,6.995,-9999.0,'1111122,1111122,1111122' 
DISL,ioos:station:DISL:DISL:1,2015-10-01T06:00:00Z,30.2513,-88.0778,9.68,9.3,2.548,-9999.0,'1111122,1111122,1111122' 
DISL,ioos:station:DISL:DISL:1,2015-10-01T06:30:00Z,30.2513,-88.0778,9.68,9.74,7.102,-9999.0,'1111122,1111122,1111122' 
DISL,ioos:station:DISL:DISL:1,2015-10-01T07:00:00Z,30.2513,-88.0778,9.68,9.78,3.543,-9999.0,'1111122,1111122,1111122' 
DISL,ioos:station:DISL:DISL:1,2015-10-01T07:30:00Z,30.2513,-88.0778,9.68,10.06,5.651,-9999.0,'1111122,1111122,1111122' 
DISL,ioos:station:DISL:DISL:1,2015-10-01T08:00:00Z,30.2513,-88.0778,9.68,9.93,357.6,-9999.0,'1111122,1111122,1111122' 
DISL,ioos:station:DISL:DISL:1,2015-10-01T08:30:00Z,30.2513,-88.0778,9.68,8.96,346.1,-9999.0,'1111122,1111122,1111122' 
DISL,ioos:station:DISL:DISL:1,2015-10-01T09:00:00Z,30.2513,-88.0778,9.68,9.49,355.9,-9999.0,'1111122,1111122,1111122' 
DISL,ioos:station:DISL:DISL:1,2015-10-01T09:30:00Z,30.2513,-88.0778,9.68,10.02,7.047,-9999.0,'1111122,1111122,1111122' 
DISL,ioos:station:DISL:DISL:1,2015-10-01T10:00:00Z,30.2513,-88.0778,9.68,10.04,3.246,-9999.0,'1111122,1111122,1111122' 
DISL,ioos:station:DISL:DISL:1,2015-10-01T10:30:00Z,30.2513,-88.0778,9.68,10.77,3.623,-9999.0,'1111122,1111122,1111122' 
DISL,ioos:station:DISL:DISL:1,2015-10-01T11:00:00Z,30.2513,-88.0778,9.68,9.25,354.4,-9999.0,'1111122,1111122,1111122' 
DISL,ioos:station:DISL:DISL:1,2015-10-01T11:30:00Z,30.2513,-88.0778,9.68,9.23,346.0,-9999.0,'1111122,1111122,1111122' 
DISL,ioos:station:DISL:DISL:1,2015-10-01T12:00:00Z,30.2513,-88.0778,9.68,9.0,346.2,-9999.0,'1111122,1111122,1111122' 
DISL,ioos:station:DISL:DISL:1,2015-10-01T12:30:00Z,30.2513,-88.0778,9.68,8.74,342.3,-9999.0,'1111122,1111122,1111122' 
DISL,ioos:station:DISL:DISL:1,2015-10-01T13:00:00Z,30.2513,-88.0778,9.68,8.73,340.0,-9999.0,'1111122,1111122,1111122' 
DISL,ioos:station:DISL:DISL:1,2015-10-01T13:30:00Z,30.2513,-88.0778,9.68,8.85,338.2,-9999.0,'1111122,1111122,1111122' 
DISL,ioos:station:DISL:DISL:1,2015-10-01T14:00:00Z,30.2513,-88.0778,9.68,9.53,351.1,-9999.0,'1111122,1111122,1111122' 
DISL,ioos:station:DISL:DISL:1,2015-10-01T14:30:00Z,30.2513,-88.0778,9.68,8.74,348.3,-9999.0,'1111122,1111122,1111122' 
DISL,ioos:station:DISL:DISL:1,2015-10-01T15:00:00Z,30.2513,-88.0778,9.68,8.29,353.6,-9999.0,'1111122,1111122,1111122' 
DISL,ioos:station:DISL:DISL:1,2015-10-01T15:30:00Z,30.2513,-88.0778,9.68,7.78,348.2,-9999.0,'1111122,1111122,1111122' 
DISL,ioos:station:DISL:DISL:1,2015-10-01T16:00:00Z,30.2513,-88.0778,9.68,7.34,347.3,-9999.0,'1111122,1111122,1111122' 
DISL,ioos:station:DISL:DISL:1,2015-10-01T16:30:00Z,30.2513,-88.0778,9.68,7.78,347.5,-9999.0,'1111122,1111122,1111122' 
DISL,ioos:station:DISL:DISL:1,2015-10-01T17:00:00Z,30.2513,-88.0778,9.68,7.97,352.7,-9999.0,'1111122,1111122,1111122' 
DISL,ioos:station:DISL:DISL:1,2015-10-01T17:30:00Z,30.2513,-88.0778,9.68,8.18,345.0,-9999.0,'1111122,1111122,1111122' 
DISL,ioos:station:DISL:DISL:1,2015-10-01T18:00:00Z,30.2513,-88.0778,9.68,8.6,351.1,-9999.0,'1111122,1111122,1111122' 
DISL,ioos:station:DISL:DISL:1,2015-10-01T18:30:00Z,30.2513,-88.0778,9.68,8.02,345.2,-9999.0,'1111122,1111122,1111122' 
DISL,ioos:station:DISL:DISL:1,2015-10-01T19:00:00Z,30.2513,-88.0778,9.68,9.39,358.0,-9999.0,'1111122,1111122,1111122' 
DISL,ioos:station:DISL:DISL:1,2015-10-01T19:30:00Z,30.2513,-88.0778,9.68,8.91,3.656,-9999.0,'1111122,1111122,1111122' 
DISL,ioos:station:DISL:DISL:1,2015-10-01T20:00:00Z,30.2513,-88.0778,9.68,8.91,359.9,-9999.0,'1111122,1111122,1111122' 
DISL,ioos:station:DISL:DISL:1,2015-10-01T20:30:00Z,30.2513,-88.0778,9.68,9.71,358.3,-9999.0,'1111122,1111122,1111122' 
DISL,ioos:station:DISL:DISL:1,2015-10-01T21:00:00Z,30.2513,-88.0778,9.68,9.34,0.626,-9999.0,'1111122,1111122,1111122' 
DISL,ioos:station:DISL:DISL:1,2015-10-01T21:30:00Z,30.2513,-88.0778,9.68,9.48,352.2,-9999.0,'1111122,1111122,1111122' 
DISL,ioos:station:DISL:DISL:1,2015-10-01T22:00:00Z,30.2513,-88.0778,9.68,10.09,352.0,-9999.0,'1111122,1111122,1111122' 
DISL,ioos:station:DISL:DISL:1,2015-10-01T22:30:00Z,30.2513,-88.0778,9.68,11.68,356.7,-9999.0,'1111122,1111122,1111122' 
DISL,ioos:station:DISL:DISL:1,2015-10-01T23:00:00Z,30.2513,-88.0778,9.68,10.65,351.1,-9999.0,'1111122,1111122,1111122' 
DISL,ioos:station:DISL:DISL:1,2015-10-01T23:30:00Z,30.2513,-88.0778,9.68,11.25,1.548,-9999.0,'1111122,1111122,1111122' 
DISL,ioos:station:DISL:DISL:1,2015-10-02T00:00:00Z,30.2513,-88.0778,9.68,9.68,353.0,-9999.0,'1111122,1111122,1111122' 
DISL,ioos:station:DISL:DISL:1,2015-10-02T00:30:00Z,30.2513,-88.0778,9.68,11.25,353.4,-9999.0,'1111122,1111122,1111122' 
DISL,ioos:station:DISL:DISL:1,2015-10-02T01:00:00Z,30.2513,-88.0778,9.68,9.68,350.2,-9999.0,'1111122,1111122,1111122' 
DISL,ioos:station:DISL:DISL:1,2015-10-02T01:30:00Z,30.2513,-88.0778,9.68,8.43,345.6,-9999.0,'1111122,1111122,1111122' 
DISL,ioos:station:DISL:DISL:1,2015-10-02T02:00:00Z,30.2513,-88.0778,9.68,11.39,356.1,-9999.0,'1111122,1111122,1111122' 
DISL,ioos:station:DISL:DISL:1,2015-10-02T02:30:00Z,30.2513,-88.0778,9.68,12.3,7.559,-9999.0,'1111122,1111122,1111122' 
DISL,ioos:station:DISL:DISL:1,2015-10-02T03:00:00Z,30.2513,-88.0778,9.68,11.3,357.1,-9999.0,'1111122,1111122,1111122' 
DISL,ioos:station:DISL:DISL:1,2015-10-02T03:30:00Z,30.2513,-88.0778,9.68,12.52,2.604,-9999.0,'1111122,1111122,1111122' 
DISL,ioos:station:DISL:DISL:1,2015-10-02T04:00:00Z,30.2513,-88.0778,9.68,11.99,354.9,-9999.0,'1111122,1111122,1111122' 
DISL,ioos:station:DISL:DISL:1,2015-10-02T04:30:00Z,30.2513,-88.0778,9.68,11.72,359.0,-9999.0,'1111122,1111122,1111122' 
DISL,ioos:station:DISL:DISL:1,2015-10-02T05:00:00Z,30.2513,-88.0778,9.68,11.62,2.502,-9999.0,'1111122,1111122,1111122' 
DISL,ioos:station:DISL:DISL:1,2015-10-02T05:30:00Z,30.2513,-88.0778,9.68,10.53,359.8,-9999.0,'1111122,1111122,1111122' 
DISL,ioos:station:DISL:DISL:1,2015-10-02T06:00:00Z,30.2513,-88.0778,9.68,11.21,7.117,-9999.0,'1111122,1111122,1111122' 
DISL,ioos:station:DISL:DISL:1,2015-10-02T06:30:00Z,30.2513,-88.0778,9.68,10.34,356.8,-9999.0,'1111122,1111122,1111122' 
DISL,ioos:station:DISL:DISL:1,2015-10-02T07:00:00Z,30.2513,-88.0778,9.68,8.69,341.0,-9999.0,'1111122,1111122,1111122' 
DISL,ioos:station:DISL:DISL:1,2015-10-02T07:30:00Z,30.2513,-88.0778,9.68,8.7,338.1,-9999.0,'1111122,1111122,1111122' 
DISL,ioos:station:DISL:DISL:1,2015-10-02T08:00:00Z,30.2513,-88.0778,9.68,8.52,335.4,-9999.0,'1111122,1111122,1111122' 
DISL,ioos:station:DISL:DISL:1,2015-10-02T08:30:00Z,30.2513,-88.0778,9.68,8.58,337.7,-9999.0,'1111122,1111122,1111122' 
DISL,ioos:station:DISL:DISL:1,2015-10-02T09:00:00Z,30.2513,-88.0778,9.68,9.83,348.1,-9999.0,'1111122,1111122,1111122' 
DISL,ioos:station:DISL:DISL:1,2015-10-02T09:30:00Z,30.2513,-88.0778,9.68,10.18,358.1,-9999.0,'1111122,1111122,1111122' 
DISL,ioos:station:DISL:DISL:1,2015-10-02T10:00:00Z,30.2513,-88.0778,9.68,9.53,341.9,-9999.0,'1111122,1111122,1111122' 
DISL,ioos:station:DISL:DISL:1,2015-10-02T10:30:00Z,30.2513,-88.0778,9.68,8.65,340.9,-9999.0,'1111122,1111122,1111122' 
DISL,ioos:station:DISL:DISL:1,2015-10-02T11:00:00Z,30.2513,-88.0778,9.68,7.92,336.2,-9999.0,'1111122,1111122,1111122' 
DISL,ioos:station:DISL:DISL:1,2015-10-02T11:30:00Z,30.2513,-88.0778,9.68,8.43,341.3,-9999.0,'1111122,1111122,1111122' 
DISL,ioos:station:DISL:DISL:1,2015-10-02T12:00:00Z,30.2513,-88.0778,9.68,9.28,339.0,-9999.0,'1111122,1111122,1111122' 
DISL,ioos:station:DISL:DISL:1,2015-10-02T12:30:00Z,30.2513,-88.0778,9.68,8.87,340.4,-9999.0,'1111122,1111122,1111122' 
DISL,ioos:station:DISL:DISL:1,2015-10-02T13:00:00Z,30.2513,-88.0778,9.68,8.67,341.9,-9999.0,'1111122,1111122,1111122' 
DISL,ioos:station:DISL:DISL:1,2015-10-02T13:30:00Z,30.2513,-88.0778,9.68,8.92,348.1,-9999.0,'1111122,1111122,1111122' 
DISL,ioos:station:DISL:DISL:1,2015-10-02T14:00:00Z,30.2513,-88.0778,9.68,8.46,338.0,-9999.0,'1111122,1111122,1111122' 
DISL,ioos:station:DISL:DISL:1,2015-10-02T14:30:00Z,30.2513,-88.0778,9.68,8.53,341.3,-9999.0,'1111122,1111122,1111122' 
DISL,ioos:station:DISL:DISL:1,2015-10-02T15:00:00Z,30.2513,-88.0778,9.68,9.06,341.9,-9999.0,'1111122,1111122,1111122' 
DISL,ioos:station:DISL:DISL:1,2015-10-02T15:30:00Z,30.2513,-88.0778,9.68,8.32,335.7,-9999.0,'1111122,1111122,1111122' 
DISL,ioos:station:DISL:DISL:1,2015-10-02T16:00:00Z,30.2513,-88.0778,9.68,8.45,348.8,-9999.0,'1111122,1111122,1111122' 
DISL,ioos:station:DISL:DISL:1,2015-10-02T16:30:00Z,30.2513,-88.0778,9.68,7.33,348.4,-9999.0,'1111122,1111122,1111122' 
DISL,ioos:station:DISL:DISL:1,2015-10-02T17:00:00Z,30.2513,-88.0778,9.68,8.13,354.3,-9999.0,'1111122,1111122,1111122' 
DISL,ioos:station:DISL:DISL:1,2015-10-02T17:30:00Z,30.2513,-88.0778,9.68,7.71,356.9,-9999.0,'1111122,1111122,1111122' 
DISL,ioos:station:DISL:DISL:1,2015-10-02T18:00:00Z,30.2513,-88.0778,9.68,8.62,358.9,-9999.0,'1111122,1111122,1111122' 
DISL,ioos:station:DISL:DISL:1,2015-10-02T18:30:00Z,30.2513,-88.0778,9.68,8.21,354.8,-9999.0,'1111122,1111122,1111122' 
DISL,ioos:station:DISL:DISL:1,2015-10-02T19:00:00Z,30.2513,-88.0778,9.68,8.35,352.6,-9999.0,'1111122,1111122,1111122' 
DISL,ioos:station:DISL:DISL:1,2015-10-02T19:30:00Z,30.2513,-88.0778,9.68,8.7,352.1,-9999.0,'1111122,1111122,1111122' 
DISL,ioos:station:DISL:DISL:1,2015-10-02T20:00:00Z,30.2513,-88.0778,9.68,9.44,349.6,-9999.0,'1111122,1111122,1111122' 
DISL,ioos:station:DISL:DISL:1,2015-10-02T20:30:00Z,30.2513,-88.0778,9.68,9.71,349.8,-9999.0,'1111122,1111122,1111122' 
DISL,ioos:station:DISL:DISL:1,2015-10-02T21:00:00Z,30.2513,-88.0778,9.68,9.1,335.8,-9999.0,'1111122,1111122,1111122' 
DISL,ioos:station:DISL:DISL:1,2015-10-02T21:30:00Z,30.2513,-88.0778,9.68,9.95,341.8,-9999.0,'1111122,1111122,1111122' 
DISL,ioos:station:DISL:DISL:1,2015-10-02T22:00:00Z,30.2513,-88.0778,9.68,9.58,331.7,-9999.0,'1111122,1111122,1111122' 
DISL,ioos:station:DISL:DISL:1,2015-10-02T22:30:00Z,30.2513,-88.0778,9.68,9.19,325.8,-9999.0,'1111122,1111122,1111122' 
DISL,ioos:station:DISL:DISL:1,2015-10-02T23:00:00Z,30.2513,-88.0778,9.68,9.82,328.8,-9999.0,'1111122,1111122,1111122' 
DISL,ioos:station:DISL:DISL:1,2015-10-02T23:30:00Z,30.2513,-88.0778,9.68,10.42,333.8,-9999.0,'1111122,1111122,1111122' 
DISL,ioos:station:DISL:DISL:1,2015-10-03T00:00:00Z,30.2513,-88.0778,9.68,10.5,342.7,-9999.0,'1111122,1111122,1111122' 
DISL,ioos:station:DISL:DISL:1,2015-10-03T00:30:00Z,30.2513,-88.0778,9.68,10.54,342.4,-9999.0,'1111122,1111122,1111122' 
DISL,ioos:station:DISL:DISL:1,2015-10-03T01:00:00Z,30.2513,-88.0778,9.68,10.62,341.1,-9999.0,'1111122,1111122,1111122' 
DISL,ioos:station:DISL:DISL:1,2015-10-03T01:30:00Z,30.2513,-88.0778,9.68,10.48,346.9,-9999.0,'1111122,1111122,1111122' 
DISL,ioos:station:DISL:DISL:1,2015-10-03T02:00:00Z,30.2513,-88.0778,9.68,11.01,344.3,-9999.0,'1111122,1111122,1111122' 
DISL,ioos:station:DISL:DISL:1,2015-10-03T02:30:00Z,30.2513,-88.0778,9.68,10.6,336.3,-9999.0,'1111122,1111122,1111122' 
DISL,ioos:station:DISL:DISL:1,2015-10-03T03:00:00Z,30.2513,-88.0778,9.68,10.16,336.9,-9999.0,'1111122,1111122,1111122' 
DISL,ioos:station:DISL:DISL:1,2015-10-03T03:30:00Z,30.2513,-88.0778,9.68,9.48,342.2,-9999.0,'1111122,1111122,1111122' 
DISL,ioos:station:DISL:DISL:1,2015-10-03T04:00:00Z,30.2513,-88.0778,9.68,9.32,347.5,-9999.0,'1111122,1111122,1111122' 
DISL,ioos:station:DISL:DISL:1,2015-10-03T04:30:00Z,30.2513,-88.0778,9.68,9.38,342.7,-9999.0,'1111122,1111122,1111122' 
DISL,ioos:station:DISL:DISL:1,2015-10-03T05:00:00Z,30.2513,-88.0778,9.68,9.12,334.3,-9999.0,'1111122,1111122,1111122' 
DISL,ioos:station:DISL:DISL:1,2015-10-03T05:30:00Z,30.2513,-88.0778,9.68,9.58,345.0,-9999.0,'1111122,1111122,1111122' 
DISL,ioos:station:DISL:DISL:1,2015-10-03T06:00:00Z,30.2513,-88.0778,9.68,8.02,335.8,-9999.0,'1111122,1111122,1111122' 
DISL,ioos:station:DISL:DISL:1,2015-10-03T06:30:00Z,30.2513,-88.0778,9.68,8.04,329.1,-9999.0,'1111122,1111122,1111122' 
DISL,ioos:station:DISL:DISL:1,2015-10-03T07:00:00Z,30.2513,-88.0778,9.68,8.32,335.4,-9999.0,'1111122,1111122,1111122' 
DISL,ioos:station:DISL:DISL:1,2015-10-03T07:30:00Z,30.2513,-88.0778,9.68,8.98,345.9,-9999.0,'1111122,1111122,1111122' 
DISL,ioos:station:DISL:DISL:1,2015-10-03T08:00:00Z,30.2513,-88.0778,9.68,9.05,339.7,-9999.0,'1111122,1111122,1111122' 
DISL,ioos:station:DISL:DISL:1,2015-10-03T08:30:00Z,30.2513,-88.0778,9.68,8.48,340.4,-9999.0,'1111122,1111122,1111122' 
DISL,ioos:station:DISL:DISL:1,2015-10-03T09:00:00Z,30.2513,-88.0778,9.68,9.02,336.1,-9999.0,'1111122,1111122,1111122' 
DISL,ioos:station:DISL:DISL:1,2015-10-03T09:30:00Z,30.2513,-88.0778,9.68,8.96,338.5,-9999.0,'1111122,1111122,1111122' 
DISL,ioos:station:DISL:DISL:1,2015-10-03T10:00:00Z,30.2513,-88.0778,9.68,9.45,343.3,-9999.0,'1111122,1111122,1111122' 
DISL,ioos:station:DISL:DISL:1,2015-10-03T10:30:00Z,30.2513,-88.0778,9.68,9.21,341.2,-9999.0,'1111122,1111122,1111122' 
DISL,ioos:station:DISL:DISL:1,2015-10-03T11:00:00Z,30.2513,-88.0778,9.68,9.17,340.4,-9999.0,'1111122,1111122,1111122' 
DISL,ioos:station:DISL:DISL:1,2015-10-03T11:30:00Z,30.2513,-88.0778,9.68,8.42,341.4,-9999.0,'1111122,1111122,1111122' 
DISL,ioos:station:DISL:DISL:1,2015-10-03T12:00:00Z,30.2513,-88.0778,9.68,8.23,338.5,-9999.0,'1111122,1111122,1111122' 
DISL,ioos:station:DISL:DISL:1,2015-10-03T12:30:00Z,30.2513,-88.0778,9.68,8.04,337.8,-9999.0,'1111122,1111122,1111122' 
DISL,ioos:station:DISL:DISL:1,2015-10-03T13:00:00Z,30.2513,-88.0778,9.68,8.25,343.6,-9999.0,'1111122,1111122,1111122' 
DISL,ioos:station:DISL:DISL:1,2015-10-03T13:30:00Z,30.2513,-88.0778,9.68,7.88,339.7,-9999.0,'1111122,1111122,1111122' 
DISL,ioos:station:DISL:DISL:1,2015-10-03T14:00:00Z,30.2513,-88.0778,9.68,7.68,343.7,-9999.0,'1111122,1111122,1111122' 
DISL,ioos:station:DISL:DISL:1,2015-10-03T14:30:00Z,30.2513,-88.0778,9.68,6.97,340.1,-9999.0,'1111122,1111122,1111122' 
DISL,ioos:station:DISL:DISL:1,2015-10-03T15:00:00Z,30.2513,-88.0778,9.68,8.23,335.8,-9999.0,'1111122,1111122,1111122' 
DISL,ioos:station:DISL:DISL:1,2015-10-03T15:30:00Z,30.2513,-88.0778,9.68,6.73,339.9,-9999.0,'1111122,1111122,1111122' 
DISL,ioos:station:DISL:DISL:1,2015-10-03T16:00:00Z,30.2513,-88.0778,9.68,5.3,326.4,-9999.0,'1111122,1111122,1111122' 
DISL,ioos:station:DISL:DISL:1,2015-10-03T16:30:00Z,30.2513,-88.0778,9.68,5.7,305.1,-9999.0,'1111122,1111122,1111122' 
DISL,ioos:station:DISL:DISL:1,2015-10-03T17:00:00Z,30.2513,-88.0778,9.68,5.1,333.1,-9999.0,'1111122,1111122,1111122' 
DISL,ioos:station:DISL:DISL:1,2015-10-03T17:30:00Z,30.2513,-88.0778,9.68,6.04,352.4,-9999.0,'1111122,1111122,1111122' 
DISL,ioos:station:DISL:DISL:1,2015-10-03T18:00:00Z,30.2513,-88.0778,9.68,5.62,345.9,-9999.0,'1111122,1111122,1111122' 
DISL,ioos:station:DISL:DISL:1,2015-10-03T18:30:00Z,30.2513,-88.0778,9.68,5.24,343.7,-9999.0,'1111122,1111122,1111122' 
DISL,ioos:station:DISL:DISL:1,2015-10-03T19:00:00Z,30.2513,-88.0778,9.68,6.3,324.7,-9999.0,'1111122,1111122,1111122' 
DISL,ioos:station:DISL:DISL:1,2015-10-03T19:30:00Z,30.2513,-88.0778,9.68,7.37,341.5,-9999.0,'1111122,1111122,1111122' 
DISL,ioos:station:DISL:DISL:1,2015-10-03T20:00:00Z,30.2513,-88.0778,9.68,6.63,341.4,-9999.0,'1111122,1111122,1111122' 
DISL,ioos:station:DISL:DISL:1,2015-10-03T20:30:00Z,30.2513,-88.0778,9.68,7.25,333.0,-9999.0,'1111122,1111122,1111122' 
DISL,ioos:station:DISL:DISL:1,2015-10-03T21:00:00Z,30.2513,-88.0778,9.68,7.11,330.9,-9999.0,'1111122,1111122,1111122' 
DISL,ioos:station:DISL:DISL:1,2015-10-03T21:30:00Z,30.2513,-88.0778,9.68,6.86,343.8,-9999.0,'1111122,1111122,1111122' 
DISL,ioos:station:DISL:DISL:1,2015-10-03T22:00:00Z,30.2513,-88.0778,9.68,7.97,335.2,-9999.0,'1111122,1111122,1111122' 
DISL,ioos:station:DISL:DISL:1,2015-10-03T22:30:00Z,30.2513,-88.0778,9.68,7.81,338.0,-9999.0,'1111122,1111122,1111122' 
DISL,ioos:station:DISL:DISL:1,2015-10-03T23:00:00Z,30.2513,-88.0778,9.68,7.41,327.7,-9999.0,'1111122,1111122,1111122' 
DISL,ioos:station:DISL:DISL:1,2015-10-03T23:30:00Z,30.2513,-88.0778,9.68,8.76,329.8,-9999.0,'1111122,1111122,1111122' 
DISL,ioos:station:DISL:DISL:1,2015-10-04T00:00:00Z,30.2513,-88.0778,9.68,8.28,326.3,-9999.0,'1111122,1111122,1111122' 
DISL,ioos:station:DISL:DISL:1,2015-10-04T00:30:00Z,30.2513,-88.0778,9.68,8.05,333.8,-9999.0,'1111122,1111122,1111122' 
DISL,ioos:station:DISL:DISL:1,2015-10-04T01:00:00Z,30.2513,-88.0778,9.68,6.85,328.9,-9999.0,'1111122,1111122,1111122' 
DISL,ioos:station:DISL:DISL:1,2015-10-04T01:30:00Z,30.2513,-88.0778,9.68,8.06,331.6,-9999.0,'1111122,1111122,1111122' 
DISL,ioos:station:DISL:DISL:1,2015-10-04T02:00:00Z,30.2513,-88.0778,9.68,7.82,328.4,-9999.0,'1111122,1111122,1111122' 
DISL,ioos:station:DISL:DISL:1,2015-10-04T02:30:00Z,30.2513,-88.0778,9.68,8.07,331.3,-9999.0,'1111122,1111122,1111122' 
DISL,ioos:station:DISL:DISL:1,2015-10-04T03:00:00Z,30.2513,-88.0778,9.68,8.81,330.7,-9999.0,'1111122,1111122,1111122' 
DISL,ioos:station:DISL:DISL:1,2015-10-04T03:30:00Z,30.2513,-88.0778,9.68,7.53,327.3,-9999.0,'1111122,1111122,1111122' 
DISL,ioos:station:DISL:DISL:1,2015-10-04T04:00:00Z,30.2513,-88.0778,9.68,7.69,329.0,-9999.0,'1111122,1111122,1111122' 
DISL,ioos:station:DISL:DISL:1,2015-10-04T04:30:00Z,30.2513,-88.0778,9.68,6.55,337.5,-9999.0,'1111122,1111122,1111122' 
DISL,ioos:station:DISL:DISL:1,2015-10-04T05:00:00Z,30.2513,-88.0778,9.68,6.51,327.7,-9999.0,'1111122,1111122,1111122' 
DISL,ioos:station:DISL:DISL:1,2015-10-04T05:30:00Z,30.2513,-88.0778,9.68,6.63,326.5,-9999.0,'1111122,1111122,1111122' 
DISL,ioos:station:DISL:DISL:1,2015-10-04T06:00:00Z,30.2513,-88.0778,9.68,6.82,331.3,-9999.0,'1111122,1111122,1111122' 
DISL,ioos:station:DISL:DISL:1,2015-10-04T06:30:00Z,30.2513,-88.0778,9.68,7.88,332.6,-9999.0,'1111122,1111122,1111122' 
DISL,ioos:station:DISL:DISL:1,2015-10-04T07:00:00Z,30.2513,-88.0778,9.68,6.53,335.1,-9999.0,'1111122,1111122,1111122' 
DISL,ioos:station:DISL:DISL:1,2015-10-04T07:30:00Z,30.2513,-88.0778,9.68,6.98,329.6,-9999.0,'1111122,1111122,1111122' 
DISL,ioos:station:DISL:DISL:1,2015-10-04T08:00:00Z,30.2513,-88.0778,9.68,8.3,336.8,-9999.0,'1111122,1111122,1111122' 
DISL,ioos:station:DISL:DISL:1,2015-10-04T08:30:00Z,30.2513,-88.0778,9.68,7.83,338.0,-9999.0,'1111122,1111122,1111122' 
DISL,ioos:station:DISL:DISL:1,2015-10-04T09:00:00Z,30.2513,-88.0778,9.68,7.8,335.5,-9999.0,'1111122,1111122,1111122' 
DISL,ioos:station:DISL:DISL:1,2015-10-04T09:30:00Z,30.2513,-88.0778,9.68,7.63,326.6,-9999.0,'1111122,1111122,1111122' 
DISL,ioos:station:DISL:DISL:1,2015-10-04T10:00:00Z,30.2513,-88.0778,9.68,7.28,325.2,-9999.0,'1111122,1111122,1111122' 
DISL,ioos:station:DISL:DISL:1,2015-10-04T10:30:00Z,30.2513,-88.0778,9.68,7.48,331.4,-9999.0,'1111122,1111122,1111122' 
DISL,ioos:station:DISL:DISL:1,2015-10-04T11:00:00Z,30.2513,-88.0778,9.68,6.66,330.9,-9999.0,'1111122,1111122,1111122' 
DISL,ioos:station:DISL:DISL:1,2015-10-04T11:30:00Z,30.2513,-88.0778,9.68,7.59,326.6,-9999.0,'1111122,1111122,1111122' 
DISL,ioos:station:DISL:DISL:1,2015-10-04T12:00:00Z,30.2513,-88.0778,9.68,8.03,329.6,-9999.0,'1111122,1111122,1111122' 
DISL,ioos:station:DISL:DISL:1,2015-10-04T12:30:00Z,30.2513,-88.0778,9.68,6.46,325.5,-9999.0,'1111122,1111122,1111122' 
DISL,ioos:station:DISL:DISL:1,2015-10-04T13:00:00Z,30.2513,-88.0778,9.68,6.74,315.8,-9999.0,'1111122,1111122,1111122' 
DISL,ioos:station:DISL:DISL:1,2015-10-04T13:30:00Z,30.2513,-88.0778,9.68,7.79,324.4,-9999.0,'1111122,1111122,1111122' 
DISL,ioos:station:DISL:DISL:1,2015-10-04T14:00:00Z,30.2513,-88.0778,9.68,6.84,329.9,-9999.0,'1111122,1111122,1111122' 
DISL,ioos:station:DISL:DISL:1,2015-10-04T14:30:00Z,30.2513,-88.0778,9.68,6.42,333.8,-9999.0,'1111122,1111122,1111122' 
DISL,ioos:station:DISL:DISL:1,2015-10-04T15:00:00Z,30.2513,-88.0778,9.68,7.64,320.6,-9999.0,'1111122,1111122,1111122' 
DISL,ioos:station:DISL:DISL:1,2015-10-04T15:30:00Z,30.2513,-88.0778,9.68,6.37,328.6,-9999.0,'1111122,1111122,1111122' 
DISL,ioos:station:DISL:DISL:1,2015-10-04T16:00:00Z,30.2513,-88.0778,9.68,5.93,317.0,-9999.0,'1111122,1111122,1111122' 
DISL,ioos:station:DISL:DISL:1,2015-10-04T16:30:00Z,30.2513,-88.0778,9.68,6.19,310.9,-9999.0,'1111122,1111122,1111122' 
DISL,ioos:station:DISL:DISL:1,2015-10-04T17:00:00Z,30.2513,-88.0778,9.68,5.99,314.4,-9999.0,'1111122,1111122,1111122' 
DISL,ioos:station:DISL:DISL:1,2015-10-04T17:30:00Z,30.2513,-88.0778,9.68,6.47,312.8,-9999.0,'1111122,1111122,1111122' 
DISL,ioos:station:DISL:DISL:1,2015-10-04T18:00:00Z,30.2513,-88.0778,9.68,6.38,317.2,-9999.0,'1111122,1111122,1111122' 
DISL,ioos:station:DISL:DISL:1,2015-10-04T18:30:00Z,30.2513,-88.0778,9.68,5.51,311.5,-9999.0,'1111122,1111122,1111122' 
DISL,ioos:station:DISL:DISL:1,2015-10-04T19:00:00Z,30.2513,-88.0778,9.68,5.15,336.2,-9999.0,'1111122,1111122,1111122' 
DISL,ioos:station:DISL:DISL:1,2015-10-04T19:30:00Z,30.2513,-88.0778,9.68,4.37,333.5,-9999.0,'1111122,1111122,1111122' 
DISL,ioos:station:DISL:DISL:1,2015-10-04T20:00:00Z,30.2513,-88.0778,9.68,4.47,357.7,-9999.0,'1111122,1111122,1111122' 
DISL,ioos:station:DISL:DISL:1,2015-10-04T20:30:00Z,30.2513,-88.0778,9.68,4.19,352.9,-9999.0,'1111122,1111122,1111122' 
DISL,ioos:station:DISL:DISL:1,2015-10-04T21:00:00Z,30.2513,-88.0778,9.68,6.82,17.88,-9999.0,'1111122,1111122,1111122' 
DISL,ioos:station:DISL:DISL:1,2015-10-04T21:30:00Z,30.2513,-88.0778,9.68,6.12,359.6,-9999.0,'1111122,1111122,1111122' 
DISL,ioos:station:DISL:DISL:1,2015-10-04T22:00:00Z,30.2513,-88.0778,9.68,6.06,8.75,-9999.0,'1111122,1111122,1111122' 
DISL,ioos:station:DISL:DISL:1,2015-10-04T22:30:00Z,30.2513,-88.0778,9.68,4.87,356.0,-9999.0,'1111122,1111122,1111122' 
DISL,ioos:station:DISL:DISL:1,2015-10-04T23:00:00Z,30.2513,-88.0778,9.68,6.1,350.9,-9999.0,'1111122,1111122,1111122' 
DISL,ioos:station:DISL:DISL:1,2015-10-04T23:30:00Z,30.2513,-88.0778,9.68,5.27,335.7,-9999.0,'1111122,1111122,1111122' 
DISL,ioos:station:DISL:DISL:1,2015-10-05T00:00:00Z,30.2513,-88.0778,9.68,5.29,334.7,-9999.0,'1111122,1111122,1111122' 
DISL,ioos:station:DISL:DISL:1,2015-10-05T00:30:00Z,30.2513,-88.0778,9.68,4.73,341.1,-9999.0,'1111122,1111122,1111122' 
DISL,ioos:station:DISL:DISL:1,2015-10-05T01:00:00Z,30.2513,-88.0778,9.68,8.03,357.1,-9999.0,'1111122,1111122,1111122' 
DISL,ioos:station:DISL:DISL:1,2015-10-05T01:30:00Z,30.2513,-88.0778,9.68,8.25,334.1,-9999.0,'1111122,1111122,1111122' 
DISL,ioos:station:DISL:DISL:1,2015-10-05T02:00:00Z,30.2513,-88.0778,9.68,8.13,325.1,-9999.0,'1111122,1111122,1111122' 
DISL,ioos:station:DISL:DISL:1,2015-10-05T02:30:00Z,30.2513,-88.0778,9.68,8.02,338.3,-9999.0,'1111122,1111122,1111122' 
DISL,ioos:station:DISL:DISL:1,2015-10-05T03:00:00Z,30.2513,-88.0778,9.68,8.57,341.3,-9999.0,'1111122,1111122,1111122' 
DISL,ioos:station:DISL:DISL:1,2015-10-05T03:30:00Z,30.2513,-88.0778,9.68,7.92,339.9,-9999.0,'1111122,1111122,1111122' 